Location: Newark
(49.8969°N, 3.3422°E)
Time: 22:35:36
(UTC+00:00)

Explorer 7 - Pass Details

Date: 31 January 2020
Orbit: 485 x 679 km, 50.3° (Epoch: 19 February)

Event Time Altitude Azimuth Distance (km) Brightness Sun altitude
Rises 00:40:09 0° 283° (WNW) 2,554 - -56.7°
Reaches altitude 10° 00:42:20 10° 281° (W) 1,670 - -56.6°
Maximum altitude 00:46:03 67° 198° (SSW) 532 - -56.4°
Drops below altitude 10° 00:49:50 10° 116° (ESE) 1,694 - -56.2°
Sets 00:52:03 0° 114° (ESE) 2,596 - -56.0°
